GW2066 Weather Reports


time (UTC)temp
F
wind
direction
speed
knots
gust
knots
rain 1hr
in
rain 24hr
in
rain mn
in
humidity
%
barometer
mb
20260906113127 71 76 4.3 7.0 0.00 0.00 0.00 86 1018.0
20260906112626 71 52 3.5 4.3 0.00 0.00 0.00 86 1018.0
20260906112123 71 334 0.9 0.9 0.00 0.00 0.00 86 1017.9
20260906111621 71 56 2.6 4.3 0.00 0.00 0.00 86 1017.7
20260906111117 71 58 2.6 4.3 0.00 0.00 0.00 86 1017.7
20260906110618 71 32 1.7 1.7 0.00 0.00 0.00 86 1017.8
20260906110118 71 29 2.6 2.6 0.00 0.00 0.00 86 1017.6
20260906105612 71 93 3.5 5.2 0.00 0.00 0.00 86 1017.8
20260906105108 71 54 3.5 4.3 0.00 0.00 0.00 86 1017.7
20260906104607 71 14 1.7 1.7 0.00 0.00 0.00 86 1017.8
20260906104101 72 40 0.9 1.7 0.00 0.00 0.00 86 1017.5
20260906103600 72 35 2.6 2.6 0.00 0.00 0.00 86 1017.5
20260906103055 72 40 2.6 2.6 0.00 0.00 0.00 85 1017.4
20260906102555 72 49 2.6 4.3 0.00 0.00 0.00 85 1017.3
20260906102050 72 30 0.0 0.9 0.00 0.00 0.00 85 1017.2
20260906101544 72 49 1.7 2.6 0.00 0.00 0.00 85 1017.3
20260906101039 73 45 2.6 2.6 0.00 0.00 0.00 84 1017.2
20260906100536 73 36 0.9 1.7 0.00 0.00 0.00 84 1017.4
20260906100035 73 63 4.3 6.1 0.00 0.00 0.00 84 1017.4
20260906095530 73 43 2.6 4.3 0.00 0.00 0.00 84 1017.1
20260906095025 73 54 0.9 1.7 0.00 0.00 0.00 84 1017.2
20260906094524 73 43 1.7 2.6 0.00 0.00 0.00 84 1017.0
20260906094020 73 50 1.7 2.6 0.00 0.00 0.00 83 1017.0
20260906093516 73 39 0.9 0.9 0.00 0.00 0.00 83 1016.9
20260906093016 73 48 2.6 4.3 0.00 0.00 0.00 83 1017.2
20260906092511 73 68 2.6 4.3 0.00 0.00 0.00 83 1017.0
20260906092006 73 54 1.7 1.7 0.00 0.00 0.00 83 1017.0
20260906091502 73 58 3.5 5.2 0.00 0.00 0.00 82 1017.1
20260906090958 73 51 2.6 4.3 0.00 0.00 0.00 82 1016.9
20260906090453 73 80 1.7 4.3 0.00 0.00 0.00 82 1017.0
20260906085953 73 22 2.6 4.3 0.00 0.00 0.00 82 1017.0
20260906085452 73 54 1.7 2.6 0.00 0.00 0.00 82 1016.9
20260906084951 73 117 2.6 2.6 0.00 0.00 0.00 81 1016.9
20260906084446 73 83 2.6 2.6 0.00 0.00 0.00 82 1016.9
20260906083945 73 26 0.9 1.7 0.00 0.00 0.00 82 1017.1
20260906083441 73 40 1.7 1.7 0.00 0.00 0.00 82 1017.0
20260906082940 73 18 0.9 0.9 0.00 0.00 0.00 82 1016.9
20260906082436 73 30 2.6 4.3 0.00 0.00 0.00 82 1017.0
20260906081931 73 24 0.9 0.9 0.00 0.00 0.00 81 1017.0
20260906081426 73 26 2.6 4.3 0.00 0.00 0.00 81 1017.1
20260906080923 73 22 2.6 2.6 0.00 0.00 0.00 81 1016.7
20260906080419 73 36 1.7 1.7 0.00 0.00 0.00 81 1017.1
20260906075919 73 35 2.6 2.6 0.00 0.00 0.00 82 1017.0
20260906075414 73 66 3.5 4.3 0.00 0.00 0.00 82 1017.0
20260906074909 73 26 0.9 0.9 0.00 0.00 0.00 82 1017.1
20260906074408 73 82 0.0 0.9 0.00 0.00 0.00 82 1017.1
20260906073907 73 104 1.7 2.6 0.00 0.00 0.00 83 1017.2
20260906073402 73 127 0.9 1.7 0.00 0.00 0.00 83 1017.2
20260906072859 73 25 0.9 1.7 0.00 0.00 0.00 83 1017.0
20260906072354 73 57 0.9 0.9 0.00 0.00 0.00 83 1017.1
20260906071850 73 33 1.7 1.7 0.00 0.00 0.00 83 1017.3
20260906071345 73 76 2.6 4.3 0.00 0.00 0.00 83 1017.3
20260906070841 73 16 1.7 1.7 0.00 0.00 0.00 83 1017.0
20260906070337 73 70 2.6 5.2 0.00 0.00 0.00 83 1017.1
20260906065832 73 36 4.3 6.1 0.00 0.00 0.00 82 1017.4
20260906065326 74 97 2.6 4.3 0.00 0.00 0.00 83 1017.0
20260906064823 74 22 0.9 0.9 0.00 0.00 0.00 82 1017.3
20260906064319 74 20 0.9 1.7 0.00 0.00 0.00 82 1017.2
20260906063818 73 45 1.7 4.3 0.00 0.00 0.00 83 1017.0
20260906063314 73 64 3.5 5.2 0.00 0.00 0.00 83 1017.3
20260906062809 73 25 3.5 5.2 0.00 0.00 0.00 83 1017.2
20260906062308 73 106 1.7 2.6 0.00 0.00 0.00 83 1017.4
20260906061804 73 30 1.7 1.7 0.00 0.00 0.00 83 1017.1
20260906061300 73 2 2.6 4.3 0.00 0.00 0.00 84 1017.2
20260906060755 73 18 3.5 5.2 0.00 0.00 0.00 84 1017.4
20260906060253 73 60 3.5 5.2 0.00 0.00 0.00 85 1017.1
20260906055748 73 0 2.6 4.3 0.00 0.00 0.00 85 1017.2
20260906055243 73 25 3.5 7.0 0.00 0.00 0.00 86 1017.3
20260906054738 73 41 3.5 6.1 0.00 0.00 0.00 86 1017.1
20260906054234 73 38 3.5 4.3 0.00 0.00 0.00 86 1017.1
20260906053730 73 345 2.6 4.3 0.00 0.00 0.00 86 1017.0
20260906053226 73 43 6.1 7.8 0.00 0.00 0.00 87 1017.0
20260906052721 73 26 3.5 5.2 0.00 0.00 0.00 87 1016.9
20260906052217 73 35 7.8 9.6 0.00 0.00 0.00 87 1017.1
20260906051714 73 24 2.6 4.3 0.00 0.00 0.00 87 1016.7
20260906051213 73 35 3.5 5.2 0.00 0.00 0.00 87 1016.7
20260906050708 73 32 6.1 7.8 0.00 0.00 0.00 87 1016.9
20260906050203 73 39 2.6 4.3 0.00 0.00 0.00 87 1016.9
20260906045702 73 24 2.6 2.6 0.00 0.00 0.00 87 1016.7
20260906045157 73 50 2.6 5.2 0.00 0.00 0.00 88 1016.6
20260906044653 73 30 2.6 2.6 0.00 0.00 0.00 88 1016.5
20260906044148 73 53 4.3 7.0 0.00 0.00 0.00 88 1016.5
20260906043644 73 27 6.1 8.7 0.00 0.00 0.00 88 1016.4
20260906043139 73 75 4.3 6.1 0.00 0.00 0.00 88 1016.4
20260906042639 73 100 1.7 2.6 0.00 0.00 0.00 88 1016.2
20260906042133 73 51 7.0 8.7 0.00 0.00 0.00 88 1016.1
20260906041629 73 24 4.3 5.2 0.00 0.00 0.00 87 1016.2
20260906041124 73 12 5.2 7.0 0.00 0.00 0.00 87 1016.3
20260906040620 73 36 5.2 6.1 0.00 0.00 0.00 87 1016.2
20260906040115 73 72 2.6 2.6 0.00 0.00 0.00 87 1016.0
20260906035610 73 358 6.1 7.8 0.00 0.00 0.00 87 1016.2
20260906035106 73 38 3.5 7.0 0.00 0.00 0.00 87 1016.1
20260906034605 73 25 4.3 7.0 0.00 0.00 0.00 87 1016.0
20260906034100 73 42 6.1 7.0 0.00 0.00 0.00 87 1016.0
20260906033556 73 60 5.2 7.8 0.00 0.00 0.00 87 1016.0
20260906033051 73 64 2.6 4.3 0.00 0.00 0.00 87 1016.1
20260906032547 73 41 4.3 6.1 0.00 0.00 0.00 87 1016.3
20260906032042 73 21 1.7 1.7 0.00 0.00 0.00 87 1016.3
20260906031537 73 46 5.2 8.7 0.00 0.00 0.00 86 1016.1
20260906031033 73 9 2.6 4.3 0.00 0.00 0.00 86 1016.0
20260906030532 73 353 7.8 9.6 0.00 0.00 0.00 86 1015.8
20260906030032 73 39 2.6 2.6 0.00 0.00 0.00 86 1016.0
20260906025532 73 38 3.5 5.2 0.00 0.00 0.00 87 1016.0
20260906025030 73 25 4.3 7.0 0.00 0.00 0.00 86 1016.0
20260906024526 73 38 1.7 2.6 0.00 0.00 0.00 86 1015.8
20260906024025 73 31 7.8 9.6 0.00 0.00 0.00 86 1016.0
20260906023522 73 61 3.5 5.2 0.00 0.00 0.00 85 1015.7
20260906023016 73 43 7.0 9.6 0.00 0.00 0.00 85 1016.0
20260906022512 73 39 6.1 11.3 0.00 0.00 0.00 85 1016.0
20260906022007 73 61 4.3 5.2 0.00 0.00 0.00 85 1016.0
20260906021502 73 49 7.0 8.7 0.00 0.00 0.00 85 1016.2
20260906020956 73 82 5.2 7.8 0.00 0.00 0.00 85 1016.1
20260906020450 74 33 1.7 1.7 0.00 0.00 0.00 84 1016.2
20260906015950 73 10 1.7 1.7 0.00 0.00 0.00 85 1016.2
20260906015449 73 14 2.6 5.2 0.00 0.00 0.00 85 1016.3
20260906014949 73 39 3.5 5.2 0.00 0.00 0.00 84 1016.2
20260906014449 73 42 7.8 12.2 0.00 0.00 0.00 84 1016.2
20260906013946 73 7 3.5 5.2 0.00 0.00 0.00 84 1016.0
20260906013441 73 47 5.2 7.8 0.00 0.00 0.00 83 1016.0
20260906012937 73 44 2.6 2.6 0.00 0.00 0.00 84 1015.9
20260906012437 73 359 5.2 7.0 0.00 0.00 0.00 84 1015.9
20260906011936 73 39 2.6 2.6 0.00 0.00 0.00 85 1015.8
20260906011432 73 36 2.6 2.6 0.00 0.00 0.00 85 1016.1
20260906010927 73 11 4.3 6.1 0.00 0.00 0.00 85 1015.9
20260906010422 73 340 2.6 2.6 0.00 0.00 0.00 84 1015.8
20260906005918 73 22 1.7 4.3 0.00 0.00 0.00 84 1015.5
20260906005417 73 48 4.3 9.6 0.00 0.00 0.00 84 1015.5
20260906004916 73 36 0.9 0.9 0.00 0.00 0.00 85 1015.4
20260906004410 73 28 3.5 6.1 0.00 0.00 0.00 85 1015.3
20260906003906 73 32 0.9 1.7 0.00 0.00 0.00 85 1015.4
20260906003401 73 65 6.1 8.7 0.00 0.00 0.00 84 1015.4
20260906002857 73 39 1.7 2.6 0.00 0.00 0.00 84 1015.6
20260906002356 73 6 6.1 7.0 0.00 0.00 0.00 84 1015.5
20260906001852 73 50 4.3 5.2 0.00 0.00 0.00 85 1015.4
20260906001347 73 4 4.3 7.8 0.00 0.00 0.00 85 1015.5
20260906000842 73 2 4.3 6.1 0.00 0.00 0.00 85 1015.2
20260906000342 73 26 2.6 6.1 0.00 0.00 0.00 85 1015.3
20260905235842 73 13 2.6 4.3 0.00 0.00 0.00 84 1015.3
20260905235337 73 352 7.0 11.3 0.00 0.00 0.00 84 1015.5
20260905234832 73 342 1.7 2.6 0.00 0.00 0.00 83 1015.4
20260905234327 73 50 2.6 4.3 0.00 0.00 0.00 83 1015.6
20260905233822 73 327 4.3 6.1 0.00 0.00 0.00 83 1015.4
20260905233317 73 315 5.2 8.7 0.00 0.00 0.00 83 1015.5
20260905232816 73 18 3.5 5.2 0.00 0.00 0.00 84 1015.5
20260905232313 73 40 1.7 1.7 0.00 0.00 0.00 83 1015.3
20260905231808 73 49 6.1 7.0 0.00 0.00 0.00 83 1015.3
20260905231303 74 16 2.6 2.6 0.00 0.00 0.00 83 1015.1
20260905230800 74 28 2.6 4.3 0.00 0.00 0.00 84 1015.2
20260905230257 74 353 4.3 7.0 0.00 0.00 0.00 84 1015.1
20260905225757 74 47 5.2 9.6 0.00 0.00 0.00 84 1015.0
20260905225252 74 0 3.5 6.1 0.00 0.00 0.00 84 1015.2
20260905224751 75 59 10.4 15.6 0.00 0.00 0.00 83 1015.1
20260905224247 75 351 1.7 2.6 0.00 0.00 0.00 83 1015.2
20260905223743 75 73 1.7 1.7 0.00 0.00 0.00 83 1015.4
20260905223239 75 54 5.2 7.8 0.00 0.00 0.00 82 1015.3
20260905222735 76 2 4.3 6.1 0.00 0.00 0.00 81 1015.5
20260905222234 76 27 1.7 2.6 0.00 0.00 0.00 82 1015.0
20260905221730 77 56 4.3 7.8 0.00 0.00 0.00 80 1014.8
20260905221227 77 4 5.2 7.8 0.00 0.00 0.00 80 1015.0
20260905220722 76 55 0.9 1.7 0.00 0.00 0.00 81 1015.1
20260905220218 77 33 2.6 5.2 0.00 0.00 0.00 80 1015.1
20260905215718 77 27 8.7 11.3 0.00 0.00 0.00 78 1014.9
20260905215214 77 36 3.5 4.3 0.00 0.00 0.00 79 1015.0
20260905214709 77 18 1.7 1.7 0.00 0.00 0.00 79 1014.8
20260905214204 77 339 5.2 7.0 0.00 0.00 0.00 78 1014.7
20260905213700 77 43 3.5 5.2 0.00 0.00 0.00 79 1014.8
20260905213155 77 28 6.1 8.7 0.00 0.00 0.00 79 1014.7
20260905212650 77 50 0.9 1.7 0.00 0.00 0.00 78 1014.8
20260905212150 78 339 4.3 5.2 0.00 0.00 0.00 78 1014.8
20260905211644 78 8 4.3 6.1 0.00 0.00 0.00 78 1014.6
20260905211140 78 27 6.1 8.7 0.00 0.00 0.00 79 1014.7
20260905210637 78 4 2.6 4.3 0.00 0.00 0.00 78 1014.7
20260905210136 78 57 3.5 5.2 0.00 0.00 0.00 78 1014.7
20260905205635 78 48 2.6 4.3 0.00 0.00 0.00 77 1014.6
20260905205130 78 30 4.3 6.1 0.00 0.00 0.00 78 1014.6
20260905204629 78 340 4.3 7.8 0.00 0.00 0.00 78 1014.8
20260905204125 79 39 5.2 7.0 0.00 0.00 0.00 77 1014.7
20260905203625 79 46 1.7 4.3 0.00 0.00 0.00 76 1014.6
20260905203120 78 62 8.7 13.0 0.00 0.00 0.00 78 1014.7
20260905202615 78 0 0.9 0.9 0.00 0.00 0.00 77 1014.8
20260905202110 80 13 2.6 4.3 0.00 0.00 0.00 75 1014.8
20260905201606 78 52 2.6 5.2 0.00 0.00 0.00 77 1014.7
20260905201106 78 63 6.1 7.0 0.00 0.00 0.00 78 1014.9
20260905200602 78 344 1.7 1.7 0.00 0.00 0.00 79 1014.9
20260905200056 80 311 4.3 8.7 0.00 0.00 0.00 76 1014.9
20260905195555 79 50 1.7 2.6 0.00 0.00 0.00 77 1014.8
20260905195051 79 51 4.3 7.0 0.00 0.00 0.00 77 1015.0
20260905194550 80 31 4.3 7.8 0.00 0.00 0.00 76 1014.8
20260905194050 80 23 7.0 8.7 0.00 0.00 0.00 75 1014.9
20260905193545 79 328 2.6 4.3 0.00 0.00 0.00 77 1014.8
20260905193040 79 30 6.1 8.7 0.00 0.00 0.00 75 1015.1
20260905192535 78 71 8.7 12.2 0.00 0.00 0.00 77 1015.1
20260905192032 79 48 4.3 7.0 0.00 0.00 0.00 76 1015.1
20260905191530 79 39 8.7 11.3 0.00 0.00 0.00 75 1015.0
20260905191029 79 40 2.6 4.3 0.00 0.00 0.00 76 1014.7
20260905190528 80 0 8.7 9.6 0.00 0.00 0.00 75 1015.0
20260905190028 80 18 2.6 4.3 0.00 0.00 0.00 74 1015.2
20260905185527 80 357 4.3 6.1 0.00 0.00 0.00 75 1015.1
20260905185027 79 33 7.8 9.6 0.00 0.00 0.00 76 1015.2
20260905184527 80 354 7.0 12.2 0.00 0.00 0.00 75 1015.1
20260905184025 80 42 2.6 4.3 0.00 0.00 0.00 76 1015.1
20260905183520 80 52 6.1 7.0 0.00 0.00 0.00 75 1015.2
20260905183015 79 4 1.7 1.7 0.00 0.00 0.00 77 1015.1
20260905182514 78 26 5.2 8.7 0.00 0.00 0.00 77 1015.4
20260905182009 80 341 6.1 8.7 0.00 0.00 0.00 76 1015.2
20260905181510 79 3 4.3 7.0 0.00 0.00 0.00 77 1015.1
20260905181009 78 30 7.0 9.6 0.00 0.00 0.00 78 1015.0
20260905180504 78 5 1.7 1.7 0.00 0.00 0.00 79 1015.2
20260905175959 78 40 6.1 7.0 0.00 0.00 0.00 78 1015.3
20260905175458 78 43 5.2 7.8 0.00 0.00 0.00 78 1015.1
20260905174954 79 40 5.2 7.8 0.00 0.00 0.00 78 1015.1
20260905174449 79 47 7.0 9.6 0.00 0.00 0.00 77 1015.1
20260905173945 80 52 3.5 5.2 0.00 0.00 0.00 76 1015.2
20260905173441 78 0 2.6 2.6 0.00 0.00 0.00 78 1015.2
20260905172936 79 295 1.7 1.7 0.00 0.00 0.00 78 1015.1
20260905172434 79 1 4.3 6.1 0.00 0.00 0.00 78 1015.2
20260905171930 80 11 2.6 2.6 0.00 0.00 0.00 76 1015.1
20260905171426 79 71 2.6 4.3 0.00 0.00 0.00 78 1015.0
20260905170923 79 11 6.1 8.7 0.00 0.00 0.00 78 1015.0
20260905170418 79 16 6.1 9.6 0.00 0.00 0.00 78 1015.2
20260905165918 78 292 1.7 4.3 0.00 0.00 0.00 79 1015.3
20260905165414 79 21 4.3 8.7 0.00 0.00 0.00 77 1015.2
20260905164909 79 343 1.7 2.6 0.00 0.00 0.00 78 1015.1
20260905164408 79 43 4.3 7.8 0.00 0.00 0.00 78 1015.3
20260905163903 80 356 5.2 6.1 0.00 0.00 0.00 77 1015.3
20260905163401 80 39 3.5 5.2 0.00 0.00 0.00 76 1015.3
20260905162856 80 62 1.7 2.6 0.00 0.00 0.00 76 1015.3
20260905162355 80 43 5.2 7.8 0.00 0.00 0.00 77 1015.1
20260905161850 80 19 3.5 4.3 0.00 0.00 0.00 77 1015.2
20260905161350 80 68 6.1 7.0 0.00 0.00 0.00 77 1015.2
20260905160848 80 60 1.7 1.7 0.00 0.00 0.00 77 1015.1
20260905160342 79 77 4.3 6.1 0.00 0.00 0.00 78 1015.0
20260905155837 79 22 0.9 1.7 0.00 0.00 0.00 79 1015.0
20260905155337 79 352 4.3 5.2 0.00 0.00 0.00 79 1015.0
20260905154836 79 14 2.6 2.6 0.00 0.00 0.00 80 1014.9
20260905154332 78 39 3.5 5.2 0.00 0.00 0.00 81 1014.9
20260905153827 78 84 3.5 4.3 0.00 0.00 0.00 80 1014.8
20260905153324 78 69 3.5 4.3 0.00 0.00 0.00 81 1014.8
20260905152823 79 17 5.2 8.7 0.00 0.00 0.00 80 1014.7
20260905152322 79 57 5.2 7.0 0.00 0.00 0.00 78 1014.8
20260905151818 79 56 5.2 9.6 0.00 0.00 0.00 79 1014.6
20260905151313 79 68 4.3 6.1 0.00 0.00 0.00 78 1014.6
20260905150813 80 84 1.7 5.2 0.00 0.00 0.00 76 1014.6
20260905150314 80 321 3.5 6.1 0.00 0.00 0.00 76 1014.6
20260905145811 80 53 0.9 1.7 0.00 0.00 0.00 75 1014.4
20260905145310 80 352 2.6 4.3 0.00 0.00 0.00 75 1014.4
20260905144809 81 49 5.2 6.1 0.00 0.00 0.00 75 1014.3
20260905144305 81 357 2.6 5.2 0.00 0.00 0.00 75 1014.3
20260905143804 79 33 4.3 6.1 0.00 0.00 0.00 78 1014.4
20260905143259 79 8 5.2 7.0 0.00 0.00 0.00 79 1014.2
20260905142757 78 31 4.3 6.1 0.00 0.00 0.00 80 1014.2
20260905142251 78 40 3.5 7.8 0.00 0.00 0.00 81 1014.0
20260905141748 78 109 6.1 8.7 0.00 0.00 0.00 82 1014.0
20260905141243 78 53 6.1 7.8 0.00 0.00 0.00 83 1014.4
20260905140738 78 25 7.0 9.6 0.00 0.00 0.00 82 1013.8
20260905140233 78 11 2.6 7.0 0.00 0.00 0.00 82 1014.2
20260905135732 80 71 2.6 4.3 0.00 0.00 0.00 80 1014.0
20260905135228 79 0 5.2 11.3 0.00 0.00 0.00 81 1014.0
20260905134727 78 6 4.3 5.2 0.00 0.00 0.00 82 1014.2
20260905134227 78 15 4.3 5.2 0.00 0.00 0.00 83 1014.2
20260905133722 78 20 1.7 5.2 0.00 0.00 0.00 83 1014.3
20260905133217 78 309 4.3 7.0 0.00 0.00 0.00 83 1014.5
20260905132716 78 49 3.5 5.2 0.00 0.00 0.00 82 1014.4
20260905132212 78 358 3.5 6.1 0.00 0.00 0.00 83 1014.0
20260905131706 78 58 2.6 5.2 0.00 0.00 0.00 84 1014.1
20260905131201 77 2 1.7 2.6 0.00 0.00 0.00 85 1014.1
20260905130656 77 342 1.7 1.7 0.00 0.00 0.00 86 1013.9
20260905130150 77 13 4.3 6.1 0.00 0.00 0.00 87 1013.7
20260905125650 76 21 4.3 5.2 0.00 0.00 0.00 88 1013.8
20260905125146 76 350 4.3 7.0 0.00 0.00 0.00 89 1013.7
20260905124642 75 78 0.9 1.7 0.00 0.00 0.00 91 1013.7
20260905124137 75 354 0.0 0.0 0.00 0.00 0.00 92 1013.8
20260905123632 75 20 0.0 0.9 0.00 0.00 0.00 92 1013.7
20260905123130 75 26 0.9 2.6 0.00 0.00 0.00 92 1013.5
20260905122629 74 31 2.6 2.6 0.00 0.00 0.00 92 1013.5
20260905122124 74 1 2.6 2.6 0.00 0.00 0.00 92 1013.6
20260905121619 74 310 1.7 1.7 0.00 0.00 0.00 92 1013.4
20260905121114 74 350 1.7 2.6 0.00 0.00 0.00 92 1013.5
20260905120613 74 14 0.9 0.9 0.00 0.00 0.00 92 1013.4
20260905120108 75 332 0.9 0.9 0.00 0.00 0.00 92 1013.4
20260905115607 75 12 4.3 6.1 0.00 0.00 0.00 91 1013.3
20260905115102 75 354 0.9 0.9 0.00 0.00 0.00 91 1013.0
20260905114602 75 24 1.7 1.7 0.00 0.00 0.00 91 1012.9
20260905114101 75 324 0.9 0.9 0.00 0.00 0.00 90 1012.9
20260905113556 75 11 0.9 1.7 0.00 0.00 0.00 90 1012.6